Gulkana, AK

2:04 AM AKDT on October 23, 2017 (GMT -0800)
Gulkana

Weather History for PAGK - September, 2014

Change the Weather History Date:

Saturday, September 27, 2014

  Actual Average Record
Temperature  
Mean Temperature 28 °F -  
Max Temperature 36 °F 48 °F 61 °F (1985)
Min Temperature 19 °F 29 °F 5 °F (1983)
Degree Days  
Heating Degree Days 38    
Moisture  
Dew Point 27 °F    
Average Humidity 89    
Maximum Humidity 100    
Minimum Humidity 78    
Precipitation  
Precipitation 0.04 in - - ()
Sea Level Pressure  
Sea Level Pressure 29.78 in    
Wind  
Wind Speed 2 mph (NW)    
Max Wind Speed 6 mph    
Max Gust Speed -    
Visibility 9 miles    
Events Rain    
Averages and records for this station are not official NWS values.
T = Trace of Precipitation, MM = Missing Value Source: NWS Daily Summary

Daily Weather History Graph

Daily Weather History Graph

Search for Another Location

Airport or City:

Trip Planner

Search our weather history database for the weather conditions in past years. The results will help you decide how hot, cold, wet, or windy it might be!

Date:

Astronomy

Sep. 27, 2014 Rise Set
Actual Time 7:39 AM AKDT 7:24 PM AKDT
Civil Twilight 6:54 AM AKDT 8:09 PM AKDT
Nautical Twilight 6:01 AM AKDT 9:01 PM AKDT
Astronomical Twilight 5:04 AM AKDT 9:58 PM AKDT
Moon 12:07 PM AKDT (9/27) 8:23 PM AKDT (9/27)
Length of Visible Light 13h 14m
Length of Day
11h 45m
Waxing Crescent, 12% of the Moon is Illuminated
Sep 27
Waxing Crescent
Oct 1
First Quarter
Oct 8
Full
Oct 15
Last Quarter
Oct 23
New

Hourly Weather History & Observations

Time (AKDT) Temp. Windchill Dew Point Humidity Pressure Visibility Wind Dir Wind Speed Gust Speed Precip Events Conditions
12:53 AM 21.9 °F 17.2 °F 18.0 °F 85% 29.86 in 10.0 mi NW 3.5 mph - N/A   Clear
1:53 AM 21.0 °F 16.2 °F 17.1 °F 85% 29.85 in 10.0 mi NW 3.5 mph - N/A   Clear
2:53 AM 23.0 °F 18.4 °F 19.0 °F 85% 29.83 in 10.0 mi NNW 3.5 mph - N/A   Clear
3:53 AM 21.0 °F - 17.1 °F 85% 29.83 in 10.0 mi Calm Calm - N/A   Clear
4:53 AM 19.9 °F 14.9 °F 18.0 °F 92% 29.82 in 10.0 mi North 3.5 mph - N/A   Clear
5:53 AM 19.9 °F - 17.1 °F 89% 29.81 in 10.0 mi Calm Calm - N/A   Clear
6:53 AM 19.9 °F - 17.1 °F 89% 29.83 in 10.0 mi Calm Calm - N/A   Clear
7:53 AM 23.0 °F - 19.9 °F 88% 29.83 in 10.0 mi Calm Calm - N/A   Partly Cloudy
8:53 AM 26.1 °F - 23.0 °F 88% 29.83 in 10.0 mi Calm Calm - N/A   Partly Cloudy
9:53 AM 27.0 °F - 24.1 °F 89% 29.83 in 10.0 mi Calm Calm - N/A   Mostly Cloudy
10:53 AM 30.0 °F 25.2 °F 25.0 °F 82% 29.82 in 10.0 mi ESE 4.6 mph - N/A   Overcast
11:53 AM 30.9 °F - 25.0 °F 79% 29.82 in 10.0 mi Calm Calm - N/A   Overcast
12:53 PM 30.9 °F - 27.0 °F 85% 29.83 in 7.0 mi Calm Calm - 0.01 in   Overcast
1:53 PM 32.0 °F - 30.0 °F 92% 29.81 in 9.0 mi Calm Calm - 0.02 in   Overcast
2:53 PM 34.0 °F - 30.9 °F 89% 29.78 in 10.0 mi Calm Calm - 0.01 in   Overcast
3:53 PM 35.1 °F - 32.0 °F 89% 29.77 in 10.0 mi Calm Calm - N/A   Overcast
4:53 PM 36.0 °F 31.1 °F 32.0 °F 86% 29.77 in 10.0 mi SSE 5.8 mph - 0.00 in   Overcast
5:53 PM 36.0 °F - 30.9 °F 82% 29.76 in 10.0 mi Calm Calm - N/A   Overcast
6:53 PM 35.1 °F - 33.1 °F 92% 29.75 in 10.0 mi Calm Calm - 0.02 in Rain Light Rain
7:53 PM 35.1 °F - 34.0 °F 96% 29.75 in 10.0 mi Calm Calm - 0.02 in Rain Light Rain
8:53 PM 34.0 °F 31.0 °F 33.1 °F 96% 29.74 in 10.0 mi West 3.5 mph - 0.01 in Rain Light Rain
9:53 PM 34.0 °F - 33.1 °F 96% 29.73 in 10.0 mi Calm Calm - 0.00 in Rain Light Rain
10:53 PM 34.0 °F - 33.1 °F 96% 29.72 in 10.0 mi Calm Calm - 0.00 in   Overcast
11:44 PM 33.1 °F - 33.1 °F 100% 29.65 in 7.0 mi Calm Calm - N/A   Overcast
11:48 PM 33.8 °F - 33.8 °F 100% 29.65 in 2.5 mi Calm Calm - N/A   Overcast
11:53 PM 33.1 °F - 33.1 °F 100% 29.72 in 1.0 mi Calm Calm - N/A   Overcast